This is the latest recevied weather packets stored in our database for station/object K4AVM-13. If no packets are shown the sender has not sent any weather packets the latest 10 day(s).
| Time | Temp. | Humidity | Pressure | Rain* | Wind** | Luminosity | Snow |
|---|---|---|---|---|---|---|---|
| 1777988803 | 21.67° C | 56% | 1016.3 hPa | 0 mm | - | 433 W/m² | - |
| 1777988501 | 21.67° C | 56% | 1016.3 hPa | 0 mm | - | 420 W/m² | - |
| 1777988197 | 21.67° C | 56% | 1016.2 hPa | 0 mm | - | 407 W/m² | - |
| 1777987893 | 21.11° C | 57% | 1016.4 hPa | 0 mm | - | 394 W/m² | - |
| 1777987589 | 21.11° C | 57% | 1016.5 hPa | 0 mm | - | 381 W/m² | - |
| 1777987287 | 20.56° C | 58% | 1016.4 hPa | 0 mm | - | 369 W/m² | - |
| 1777986984 | 20.56° C | 58% | 1016.5 hPa | 0 mm | - | 355 W/m² | - |
| 1777986682 | 20.56° C | 59% | 1016.3 hPa | 0 mm | - | 343 W/m² | - |
| 1777986380 | 20.56° C | 59% | 1016.6 hPa | 0 mm | - | 330 W/m² | - |
| 1777986078 | 20° C | 61% | 1016.5 hPa | 0 mm | - | 315 W/m² | - |
| 1777985774 | 20° C | 63% | 1016.4 hPa | 0 mm | - | 304 W/m² | - |
| 1777985471 | 19.44° C | 62% | 1016.4 hPa | 0 mm | - | 290 W/m² | - |
| 1777985167 | 18.89° C | 65% | 1016.5 hPa | 0 mm | - | 278 W/m² | - |
| 1777984864 | 18.33° C | 67% | 1016.6 hPa | 0 mm | - | 261 W/m² | - |
| 1777984560 | 18.33° C | 68% | 1016.5 hPa | 0 mm | - | 66 W/m² | - |
| 1777984257 | 18.33° C | 68% | 1016.6 hPa | 0 mm | - | 134 W/m² | - |
| 1777983953 | 17.78° C | 68% | 1016.6 hPa | 0 mm | - | 213 W/m² | - |
| 1777983651 | 17.22° C | 70% | 1016.3 hPa | 0 mm | - | 134 W/m² | - |
| 1777983347 | 17.22° C | 70% | 1016.7 hPa | 0 mm | - | 115 W/m² | - |
| 1777983044 | 17.22° C | 71% | 1016.5 hPa | 0 mm | - | 190 W/m² | - |
| 1777982740 | 17.22° C | 71% | 1016.5 hPa | 0 mm | - | 101 W/m² | - |
| 1777982436 | 17.22° C | 72% | 1016.2 hPa | 0 mm | - | 181 W/m² | - |
| 1777982131 | 16.67° C | 72% | 1016.2 hPa | 0 mm | - | 172 W/m² | - |
| 1777981829 | 16.11° C | 75% | 1016.1 hPa | 0 mm | - | 146 W/m² | - |
| 1777981525 | 15.56° C | 76% | 1016.2 hPa | 0 mm | - | 55 W/m² | - |
* Rain latest hour (hover to see other rain measurements)
** Current wind speed in m/s (hover to see current wind gust speed)